User: anonymous   Login
Location: Unspecified
(0.0000°N, 0.0000°E)
Time: 07:33:53
(UTC+02:00)
Language:

Meteor 1-10 Rocket - Orbit

View from above orbital plane
View from above orbital plane
View from above satellite
View from above satellite

Ground track
Ground track

The orbit data is extracted from the following two-line orbital elements,

1  5732U 71120B   17179.40051019 +.00000046 +00000-0 +20447-4 0  9994
2  5732 081.2520 112.3136 0052055 012.8985 347.3501 14.05939738332363
Epoch (UTC): 28 June 2017 09:36:44
Eccentricity: 0.0052055
inclination: 81.2520°
perigee height: 835 km
apogee height: 911 km
right ascension of ascending node: 112.3136°
argument of perigee: 12.8985°
revolutions per day: 14.05939738
mean anomaly at epoch: 347.3501°
orbit number at epoch: 33236

The dashed part of the orbit path shows where the satellite is in the earth's shadow,  

DLR